Wetterdaten: Samstag, 17.03.2007
Datum Zeit Temp. A. Feuchte A. Luftdruck Regen Wind Richtung Richtung Sonnenschein UV Solar Windben
17.03.2007 00:00 8,4 C 79 % 1019,4 hPa 0,0 mm 4,8 km/h (1 Bft) W-SW 247 0 min 0 UV-I 0 W/m 14,5 km/h (3 Bft)
17.03.2007 00:10 8,3 C 79 % 1019,4 hPa 0,0 mm 3,2 km/h (1 Bft) W-SW 247 0 min 0 UV-I 0 W/m 12,9 km/h (3 Bft)
17.03.2007 00:20 8,3 C 79 % 1019,3 hPa 0,0 mm 3,2 km/h (1 Bft) SW 225 0 min 0 UV-I 0 W/m 14,5 km/h (3 Bft)
17.03.2007 00:30 8,2 C 80 % 1019,3 hPa 0,0 mm 3,2 km/h (1 Bft) SW 225 0 min 0 UV-I 0 W/m 9,7 km/h (2 Bft)
17.03.2007 00:40 8,2 C 80 % 1019,0 hPa 0,0 mm 4,8 km/h (1 Bft) W-SW 247 0 min 0 UV-I 0 W/m 16,1 km/h (3 Bft)
17.03.2007 00:50 8,2 C 80 % 1018,8 hPa 0,0 mm 4,8 km/h (1 Bft) W-SW 247 0 min 0 UV-I 0 W/m 16,1 km/h (3 Bft)
17.03.2007 01:00 8,3 C 80 % 1018,9 hPa 0,0 mm 6,4 km/h (2 Bft) W-SW 247 0 min 0 UV-I 0 W/m 16,1 km/h (3 Bft)
17.03.2007 01:10 8,4 C 80 % 1018,6 hPa 0,0 mm 4,8 km/h (1 Bft) SW 225 0 min 0 UV-I 0 W/m 16,1 km/h (3 Bft)
17.03.2007 01:20 8,4 C 80 % 1018,5 hPa 0,0 mm 4,8 km/h (1 Bft) SW 225 0 min 0 UV-I 0 W/m 16,1 km/h (3 Bft)
17.03.2007 01:30 8,6 C 80 % 1018,2 hPa 0,0 mm 6,4 km/h (2 Bft) W-SW 247 0 min 0 UV-I 0 W/m 19,3 km/h (3 Bft)
17.03.2007 01:40 8,6 C 79 % 1018,0 hPa 0,0 mm 8,0 km/h (2 Bft) W-SW 247 0 min 0 UV-I 0 W/m 19,3 km/h (3 Bft)
17.03.2007 01:50 8,7 C 79 % 1017,8 hPa 0,0 mm 8,0 km/h (2 Bft) SW 225 0 min 0 UV-I 0 W/m 20,9 km/h (4 Bft)
17.03.2007 02:00 8,7 C 79 % 1017,9 hPa 0,0 mm 8,0 km/h (2 Bft) SW 225 0 min 0 UV-I 0 W/m 22,5 km/h (4 Bft)
17.03.2007 02:10 8,8 C 79 % 1017,8 hPa 0,0 mm 8,0 km/h (2 Bft) SW 225 0 min 0 UV-I 0 W/m 25,7 km/h (4 Bft)
17.03.2007 02:20 8,8 C 78 % 1017,6 hPa 0,0 mm 8,0 km/h (2 Bft) W-SW 247 0 min 0 UV-I 0 W/m 20,9 km/h (4 Bft)
17.03.2007 02:30 8,8 C 78 % 1017,5 hPa 0,0 mm 6,4 km/h (2 Bft) SW 225 0 min 0 UV-I 0 W/m 19,3 km/h (3 Bft)
17.03.2007 02:40 8,8 C 78 % 1017,3 hPa 0,0 mm 6,4 km/h (2 Bft) W-SW 247 0 min 0 UV-I 0 W/m 19,3 km/h (3 Bft)
17.03.2007 02:50 8,8 C 78 % 1017,2 hPa 0,0 mm 8,0 km/h (2 Bft) SW 225 0 min 0 UV-I 0 W/m 22,5 km/h (4 Bft)
17.03.2007 03:00 8,7 C 79 % 1017,1 hPa 0,0 mm 6,4 km/h (2 Bft) SW 225 0 min 0 UV-I 0 W/m 16,1 km/h (3 Bft)
17.03.2007 03:10 8,6 C 79 % 1017,0 hPa 0,0 mm 6,4 km/h (2 Bft) SW 225 0 min 0 UV-I 0 W/m 19,3 km/h (3 Bft)
17.03.2007 03:20 8,6 C 78 % 1016,7 hPa 0,0 mm 8,0 km/h (2 Bft) W-SW 247 0 min 0 UV-I 0 W/m 19,3 km/h (3 Bft)
17.03.2007 03:30 8,6 C 78 % 1016,7 hPa 0,0 mm 6,4 km/h (2 Bft) W-SW 247 0 min 0 UV-I 0 W/m 19,3 km/h (3 Bft)
17.03.2007 03:40 8,6 C 78 % 1016,6 hPa 0,0 mm 6,4 km/h (2 Bft) SW 225 0 min 0 UV-I 0 W/m 17,7 km/h (3 Bft)
17.03.2007 03:50 8,5 C 78 % 1016,3 hPa 0,0 mm 6,4 km/h (2 Bft) W-SW 247 0 min 0 UV-I 0 W/m 20,9 km/h (4 Bft)
17.03.2007 04:00 8,4 C 77 % 1016,2 hPa 0,0 mm 6,4 km/h (2 Bft) SW 225 0 min 0 UV-I 0 W/m 16,1 km/h (3 Bft)
17.03.2007 04:10 8,4 C 77 % 1016,2 hPa 0,0 mm 6,4 km/h (2 Bft) SW 225 0 min 0 UV-I 0 W/m 17,7 km/h (3 Bft)
17.03.2007 04:20 8,4 C 77 % 1016,0 hPa 0,0 mm 4,8 km/h (1 Bft) W-SW 247 0 min 0 UV-I 0 W/m 17,7 km/h (3 Bft)
17.03.2007 04:30 8,4 C 77 % 1015,9 hPa 0,0 mm 6,4 km/h (2 Bft) W-SW 247 0 min 0 UV-I 0 W/m 20,9 km/h (4 Bft)
17.03.2007 04:40 8,4 C 77 % 1015,8 hPa 0,0 mm 6,4 km/h (2 Bft) SW 225 0 min 0 UV-I 0 W/m 17,7 km/h (3 Bft)
17.03.2007 04:50 8,4 C 77 % 1015,7 hPa 0,0 mm 6,4 km/h (2 Bft) SW 225 0 min 0 UV-I 0 W/m 19,3 km/h (3 Bft)
17.03.2007 05:00 8,4 C 78 % 1015,6 hPa 0,0 mm 8,0 km/h (2 Bft) SW 225 0 min 0 UV-I 0 W/m 22,5 km/h (4 Bft)
17.03.2007 05:10 8,3 C 79 % 1015,5 hPa 0,0 mm 8,0 km/h (2 Bft) SW 225 0 min 0 UV-I 0 W/m 25,7 km/h (4 Bft)
17.03.2007 05:20 8,2 C 79 % 1015,4 hPa 0,0 mm 6,4 km/h (2 Bft) W-SW 247 0 min 0 UV-I 0 W/m 16,1 km/h (3 Bft)
17.03.2007 05:30 8,2 C 79 % 1015,4 hPa 0,0 mm 6,4 km/h (2 Bft) SW 225 0 min 0 UV-I 0 W/m 19,3 km/h (3 Bft)
17.03.2007 05:40 8,1 C 80 % 1015,4 hPa 0,0 mm 6,4 km/h (2 Bft) W-SW 247 0 min 0 UV-I 0 W/m 17,7 km/h (3 Bft)
17.03.2007 05:50 8,0 C 81 % 1015,4 hPa 0,0 mm 6,4 km/h (2 Bft) W-SW 247 0 min 0 UV-I 0 W/m 16,1 km/h (3 Bft)
17.03.2007 06:00 7,9 C 82 % 1015,5 hPa 0,0 mm 6,4 km/h (2 Bft) W-SW 247 0 min 0 UV-I 0 W/m 17,7 km/h (3 Bft)
17.03.2007 06:10 7,8 C 84 % 1015,5 hPa 0,0 mm 6,4 km/h (2 Bft) W-SW 247 0 min 0 UV-I 0 W/m 19,3 km/h (3 Bft)
17.03.2007 06:20 7,7 C 84 % 1015,5 hPa 0,0 mm 6,4 km/h (2 Bft) SW 225 0 min 0 UV-I 0 W/m 17,7 km/h (3 Bft)
17.03.2007 06:30 7,7 C 84 % 1015,5 hPa 0,0 mm 8,0 km/h (2 Bft) W-SW 247 0 min 0 UV-I 0 W/m 25,7 km/h (4 Bft)
17.03.2007 06:40 7,7 C 84 % 1015,6 hPa 0,0 mm 6,4 km/h (2 Bft) SW 225 0 min 0 UV-I 0 W/m 17,7 km/h (3 Bft)
17.03.2007 06:50 7,7 C 85 % 1015,5 hPa 0,0 mm 4,8 km/h (1 Bft) SW 225 0 min 0 UV-I 0 W/m 19,3 km/h (3 Bft)
17.03.2007 07:00 7,6 C 87 % 1015,5 hPa 0,0 mm 4,8 km/h (1 Bft) W-SW 247 0 min 0 UV-I 0 W/m 11,3 km/h (2 Bft)
17.03.2007 07:10 7,4 C 87 % 1015,5 hPa 0,1 mm 6,4 km/h (2 Bft) W-SW 247 0 min 0 UV-I 0 W/m 19,3 km/h (3 Bft)
17.03.2007 07:20 7,4 C 87 % 1015,5 hPa 0,0 mm 6,4 km/h (2 Bft) W-SW 247 0 min 0 UV-I 0 W/m 19,3 km/h (3 Bft)
17.03.2007 07:30 7,4 C 87 % 1015,5 hPa 0,0 mm 6,4 km/h (2 Bft) SW 225 0 min 0 UV-I 7 W/m 20,9 km/h (4 Bft)
17.03.2007 07:40 7,5 C 87 % 1015,5 hPa 0,0 mm 6,4 km/h (2 Bft) W-SW 247 0 min 0 UV-I 7 W/m 19,3 km/h (3 Bft)
17.03.2007 07:50 7,5 C 88 % 1015,5 hPa 0,0 mm 4,8 km/h (1 Bft) SW 225 0 min 0 UV-I 5 W/m 14,5 km/h (3 Bft)
17.03.2007 08:00 7,5 C 88 % 1015,6 hPa 0,0 mm 4,8 km/h (1 Bft) SW 225 0 min 0 UV-I 7 W/m 16,1 km/h (3 Bft)
17.03.2007 08:10 7,5 C 88 % 1015,7 hPa 0,0 mm 6,4 km/h (2 Bft) W-SW 247 0 min 0 UV-I 11 W/m 17,7 km/h (3 Bft)
17.03.2007 08:20 7,4 C 88 % 1015,8 hPa 0,1 mm 6,4 km/h (2 Bft) W-SW 247 0 min 0 UV-I 12 W/m 19,3 km/h (3 Bft)
17.03.2007 08:30 7,4 C 88 % 1015,8 hPa 0,0 mm 6,4 km/h (2 Bft) W-SW 247 0 min 0 UV-I 14 W/m 20,9 km/h (4 Bft)
17.03.2007 08:40 7,5 C 88 % 1015,7 hPa 0,0 mm 6,4 km/h (2 Bft) SW 225 0 min 0 UV-I 25 W/m 22,5 km/h (4 Bft)
17.03.2007 08:55 7,5 C 89 % 1015,8 hPa 0,0 mm 8,7 km/h (2 Bft) W-NW 284 0 min 0 UV-I 14 W/m 19,3 km/h (3 Bft)
17.03.2007 09:00 7,5 C 89 % 1015,7 hPa 0,0 mm 6,1 km/h (2 Bft) S-SW 209 0 min 0 UV-I 15 W/m 17,7 km/h (3 Bft)
17.03.2007 09:05 7,5 C 89 % 1015,7 hPa 0,0 mm 6,8 km/h (2 Bft) SW 222 0 min 0 UV-I 20 W/m 17,7 km/h (3 Bft)
17.03.2007 09:10 7,5 C 89 % 1015,8 hPa 0,0 mm 6,7 km/h (2 Bft) S 185 0 min 0 UV-I 17 W/m 16,1 km/h (3 Bft)
17.03.2007 09:15 7,5 C 89 % 1015,8 hPa 0,0 mm 7,2 km/h (2 Bft) SW 230 0 min 0 UV-I 13 W/m 20,9 km/h (4 Bft)
17.03.2007 09:20 7,5 C 89 % 1015,9 hPa 0,0 mm 7,8 km/h (2 Bft) W-SW 240 0 min 0 UV-I 15 W/m 20,9 km/h (4 Bft)
17.03.2007 09:25 7,5 C 89 % 1015,9 hPa 0,0 mm 7,7 km/h (2 Bft) W-SW 249 0 min 0 UV-I 20 W/m 19,3 km/h (3 Bft)
17.03.2007 09:30 7,5 C 89 % 1016,0 hPa 0,0 mm 6,5 km/h (2 Bft) W-SW 252 0 min 0 UV-I 21 W/m 17,7 km/h (3 Bft)
17.03.2007 09:35 7,5 C 89 % 1016,0 hPa 0,0 mm 5,0 km/h (1 Bft) W-NW 300 0 min 0 UV-I 19 W/m 17,7 km/h (3 Bft)
17.03.2007 09:40 7,5 C 90 % 1016,1 hPa 0,1 mm 4,8 km/h (1 Bft) O-SO 105 0 min 0 UV-I 20 W/m 14,5 km/h (3 Bft)
17.03.2007 09:45 7,5 C 90 % 1016,2 hPa 0,0 mm 5,5 km/h (1 Bft) W 261 0 min 0 UV-I 26 W/m 11,3 km/h (2 Bft)
17.03.2007 09:50 7,6 C 90 % 1016,2 hPa 0,0 mm 7,1 km/h (2 Bft) SW 228 0 min 0 UV-I 26 W/m 22,5 km/h (4 Bft)
17.03.2007 09:55 7,6 C 90 % 1016,2 hPa 0,0 mm 5,9 km/h (2 Bft) S-SW 210 0 min 0 UV-I 29 W/m 9,7 km/h (2 Bft)
17.03.2007 10:00 7,6 C 90 % 1016,4 hPa 0,1 mm 4,8 km/h (1 Bft) W-SW 247 0 min 0 UV-I 32 W/m 17,7 km/h (3 Bft)
17.03.2007 10:10 7,6 C 90 % 1016,4 hPa 0,0 mm 6,4 km/h (2 Bft) W-SW 247 0 min 0 UV-I 40 W/m 25,7 km/h (4 Bft)
17.03.2007 10:20 7,6 C 90 % 1016,5 hPa 0,0 mm 8,0 km/h (2 Bft) W-SW 247 0 min 0 UV-I 54 W/m 19,3 km/h (3 Bft)
17.03.2007 10:30 7,7 C 90 % 1016,6 hPa 0,0 mm 6,4 km/h (2 Bft) SW 225 0 min 0 UV-I 49 W/m 17,7 km/h (3 Bft)
17.03.2007 10:40 7,7 C 90 % 1016,6 hPa 0,0 mm 6,4 km/h (2 Bft) W-SW 247 0 min 0 UV-I 46 W/m 17,7 km/h (3 Bft)
17.03.2007 10:50 7,7 C 90 % 1016,5 hPa 0,0 mm 8,0 km/h (2 Bft) SW 225 0 min 0 UV-I 53 W/m 20,9 km/h (4 Bft)
17.03.2007 11:00 7,7 C 91 % 1016,6 hPa 0,0 mm 6,4 km/h (2 Bft) W-SW 247 0 min 0 UV-I 51 W/m 27,4 km/h (4 Bft)
17.03.2007 11:10 7,7 C 91 % 1016,5 hPa 0,0 mm 8,0 km/h (2 Bft) W-SW 247 0 min 0 UV-I 70 W/m 20,9 km/h (4 Bft)
17.03.2007 11:20 7,8 C 91 % 1016,6 hPa 0,0 mm 6,4 km/h (2 Bft) SW 225 0 min 0 UV-I 65 W/m 17,7 km/h (3 Bft)
17.03.2007 11:30 7,9 C 90 % 1016,6 hPa 0,1 mm 8,0 km/h (2 Bft) SW 225 0 min 0 UV-I 67 W/m 19,3 km/h (3 Bft)
17.03.2007 11:40 7,9 C 90 % 1016,7 hPa 0,0 mm 6,4 km/h (2 Bft) W-SW 247 0 min 0 UV-I 79 W/m 17,7 km/h (3 Bft)
17.03.2007 11:50 8,1 C 91 % 1016,7 hPa 0,0 mm 6,4 km/h (2 Bft) SW 225 0 min 1 UV-I 113 W/m 16,1 km/h (3 Bft)
17.03.2007 12:00 8,1 C 91 % 1016,6 hPa 0,1 mm 6,4 km/h (2 Bft) W-SW 247 0 min 1 UV-I 132 W/m 24,1 km/h (4 Bft)
17.03.2007 12:10 8,2 C 90 % 1016,7 hPa 0,0 mm 6,4 km/h (2 Bft) W-SW 247 0 min 1 UV-I 109 W/m 19,3 km/h (3 Bft)
17.03.2007 12:20 8,3 C 91 % 1016,7 hPa 0,0 mm 6,4 km/h (2 Bft) W-SW 247 0 min 1 UV-I 114 W/m 19,3 km/h (3 Bft)
17.03.2007 12:30 8,3 C 90 % 1016,8 hPa 0,0 mm 6,4 km/h (2 Bft) W-SW 247 0 min 1 UV-I 172 W/m 20,9 km/h (4 Bft)
17.03.2007 12:40 8,4 C 90 % 1016,7 hPa 0,0 mm 8,0 km/h (2 Bft) W-SW 247 0 min 1 UV-I 116 W/m 25,7 km/h (4 Bft)
17.03.2007 12:50 8,5 C 90 % 1016,7 hPa 0,0 mm 6,4 km/h (2 Bft) W-SW 247 0 min 1 UV-I 121 W/m 20,9 km/h (4 Bft)
17.03.2007 13:00 8,7 C 89 % 1016,6 hPa 0,0 mm 6,4 km/h (2 Bft) SW 225 0 min 1 UV-I 169 W/m 19,3 km/h (3 Bft)
17.03.2007 13:10 8,9 C 88 % 1016,5 hPa 0,0 mm 8,0 km/h (2 Bft) SW 225 0 min 1 UV-I 127 W/m 22,5 km/h (4 Bft)
17.03.2007 13:20 8,9 C 88 % 1016,4 hPa 0,0 mm 6,4 km/h (2 Bft) W-SW 247 0 min 1 UV-I 141 W/m 20,9 km/h (4 Bft)
17.03.2007 13:30 8,9 C 88 % 1016,4 hPa 0,0 mm 8,0 km/h (2 Bft) W-SW 247 0 min 0 UV-I 79 W/m 20,9 km/h (4 Bft)
17.03.2007 13:40 8,9 C 88 % 1016,4 hPa 0,0 mm 6,4 km/h (2 Bft) W-SW 247 0 min 1 UV-I 130 W/m 17,7 km/h (3 Bft)
17.03.2007 13:50 9,1 C 87 % 1016,4 hPa 0,0 mm 6,4 km/h (2 Bft) SW 225 0 min 1 UV-I 156 W/m 27,4 km/h (4 Bft)
17.03.2007 14:00 9,1 C 87 % 1016,4 hPa 0,0 mm 6,4 km/h (2 Bft) SW 225 0 min 1 UV-I 93 W/m 16,1 km/h (3 Bft)
17.03.2007 14:10 9,2 C 87 % 1016,4 hPa 0,0 mm 6,4 km/h (2 Bft) W-SW 247 0 min 1 UV-I 130 W/m 16,1 km/h (3 Bft)
17.03.2007 14:20 9,3 C 86 % 1016,4 hPa 0,0 mm 6,4 km/h (2 Bft) W-SW 247 0 min 1 UV-I 127 W/m 17,7 km/h (3 Bft)
17.03.2007 14:30 9,3 C 86 % 1016,4 hPa 0,0 mm 6,4 km/h (2 Bft) W-SW 247 0 min 0 UV-I 86 W/m 20,9 km/h (4 Bft)
17.03.2007 14:40 9,3 C 87 % 1016,3 hPa 0,0 mm 8,0 km/h (2 Bft) W-SW 247 0 min 1 UV-I 118 W/m 19,3 km/h (3 Bft)
17.03.2007 14:50 9,2 C 89 % 1016,4 hPa 0,0 mm 6,4 km/h (2 Bft) W-SW 247 0 min 0 UV-I 83 W/m 17,7 km/h (3 Bft)
17.03.2007 15:00 9,1 C 89 % 1016,3 hPa 0,0 mm 4,8 km/h (1 Bft) W-SW 247 0 min 1 UV-I 111 W/m 11,3 km/h (2 Bft)
17.03.2007 15:10 9,2 C 88 % 1016,3 hPa 0,0 mm 6,4 km/h (2 Bft) SW 225 0 min 0 UV-I 81 W/m 24,1 km/h (4 Bft)
17.03.2007 15:20 9,1 C 90 % 1016,3 hPa 0,1 mm 6,4 km/h (2 Bft) W-SW 247 0 min 0 UV-I 39 W/m 16,1 km/h (3 Bft)
17.03.2007 15:30 9,0 C 90 % 1016,3 hPa 0,0 mm 6,4 km/h (2 Bft) W-SW 247 0 min 0 UV-I 72 W/m 19,3 km/h (3 Bft)
17.03.2007 15:40 9,0 C 90 % 1016,2 hPa 0,0 mm 6,4 km/h (2 Bft) SW 225 0 min 0 UV-I 91 W/m 19,3 km/h (3 Bft)
17.03.2007 15:50 9,0 C 90 % 1016,2 hPa 0,0 mm 6,4 km/h (2 Bft) W-SW 247 0 min 0 UV-I 63 W/m 16,1 km/h (3 Bft)
17.03.2007 16:00 9,0 C 90 % 1016,2 hPa 0,0 mm 6,4 km/h (2 Bft) W-SW 247 0 min 0 UV-I 77 W/m 20,9 km/h (4 Bft)
17.03.2007 16:10 9,1 C 89 % 1016,2 hPa 0,0 mm 6,4 km/h (2 Bft) W-SW 247 0 min 0 UV-I 88 W/m 17,7 km/h (3 Bft)
17.03.2007 16:20 9,3 C 88 % 1016,1 hPa 0,0 mm 6,4 km/h (2 Bft) W-SW 247 0 min 0 UV-I 90 W/m 16,1 km/h (3 Bft)
17.03.2007 16:30 9,3 C 88 % 1016,2 hPa 0,0 mm 6,4 km/h (2 Bft) SW 225 0 min 0 UV-I 62 W/m 19,3 km/h (3 Bft)
17.03.2007 16:40 9,4 C 87 % 1016,2 hPa 0,0 mm 6,4 km/h (2 Bft) W-SW 247 0 min 0 UV-I 51 W/m 17,7 km/h (3 Bft)
17.03.2007 16:50 9,4 C 87 % 1016,2 hPa 0,0 mm 4,8 km/h (1 Bft) W-SW 247 0 min 0 UV-I 33 W/m 12,9 km/h (3 Bft)
17.03.2007 17:00 9,5 C 87 % 1016,1 hPa 0,0 mm 6,4 km/h (2 Bft) SW 225 0 min 0 UV-I 46 W/m 16,1 km/h (3 Bft)
17.03.2007 17:10 9,6 C 87 % 1016,1 hPa 0,0 mm 4,8 km/h (1 Bft) W-SW 247 0 min 0 UV-I 30 W/m 19,3 km/h (3 Bft)
17.03.2007 17:20 9,6 C 87 % 1016,1 hPa 0,0 mm 4,8 km/h (1 Bft) W-SW 247 0 min 0 UV-I 30 W/m 14,5 km/h (3 Bft)
17.03.2007 17:30 9,6 C 87 % 1016,0 hPa 0,0 mm 4,8 km/h (1 Bft) W-SW 247 0 min 0 UV-I 39 W/m 16,1 km/h (3 Bft)
17.03.2007 17:40 9,6 C 87 % 1015,9 hPa 0,0 mm 6,4 km/h (2 Bft) W-SW 247 0 min 0 UV-I 33 W/m 16,1 km/h (3 Bft)
17.03.2007 17:50 9,6 C 87 % 1015,9 hPa 0,0 mm 4,8 km/h (1 Bft) W-SW 247 0 min 0 UV-I 14 W/m 16,1 km/h (3 Bft)
17.03.2007 18:00 9,6 C 87 % 1015,8 hPa 0,0 mm 4,8 km/h (1 Bft) W-SW 247 0 min 0 UV-I 14 W/m 17,7 km/h (3 Bft)
17.03.2007 18:10 9,6 C 86 % 1015,8 hPa 0,0 mm 6,4 km/h (2 Bft) W-SW 247 0 min 0 UV-I 9 W/m 17,7 km/h (3 Bft)
17.03.2007 18:20 9,7 C 87 % 1015,7 hPa 0,0 mm 6,4 km/h (2 Bft) W-SW 247 0 min 0 UV-I 5 W/m 19,3 km/h (3 Bft)
17.03.2007 18:30 9,6 C 88 % 1015,7 hPa 0,0 mm 4,8 km/h (1 Bft) W-SW 247 0 min 0 UV-I 0 W/m 17,7 km/h (3 Bft)
17.03.2007 18:40 9,4 C 90 % 1015,5 hPa 0,1 mm 4,8 km/h (1 Bft) SW 225 0 min 0 UV-I 0 W/m 11,3 km/h (2 Bft)
17.03.2007 18:50 9,2 C 91 % 1015,5 hPa 0,0 mm 3,2 km/h (1 Bft) W-SW 247 0 min 0 UV-I 0 W/m 9,7 km/h (2 Bft)
17.03.2007 19:00 9,2 C 91 % 1015,5 hPa 0,0 mm 4,8 km/h (1 Bft) W-SW 247 0 min 0 UV-I 0 W/m 14,5 km/h (3 Bft)
17.03.2007 19:10 9,2 C 91 % 1015,4 hPa 0,0 mm 4,8 km/h (1 Bft) W-SW 247 0 min 0 UV-I 0 W/m 11,3 km/h (2 Bft)
17.03.2007 19:20 9,2 C 91 % 1015,2 hPa 0,0 mm 3,2 km/h (1 Bft) W-SW 247 0 min 0 UV-I 0 W/m 11,3 km/h (2 Bft)
17.03.2007 19:30 9,3 C 90 % 1015,2 hPa 0,0 mm 4,8 km/h (1 Bft) SW 225 0 min 0 UV-I 0 W/m 14,5 km/h (3 Bft)
17.03.2007 19:40 9,3 C 90 % 1015,2 hPa 0,1 mm 4,8 km/h (1 Bft) W-SW 247 0 min 0 UV-I 0 W/m 14,5 km/h (3 Bft)
17.03.2007 19:50 9,2 C 91 % 1015,2 hPa 0,1 mm 4,8 km/h (1 Bft) W-SW 247 0 min 0 UV-I 0 W/m 14,5 km/h (3 Bft)
17.03.2007 20:00 9,2 C 91 % 1014,9 hPa 0,1 mm 6,4 km/h (2 Bft) SW 225 0 min 0 UV-I 0 W/m 16,1 km/h (3 Bft)
17.03.2007 20:10 9,2 C 91 % 1015,0 hPa 0,0 mm 6,4 km/h (2 Bft) W-SW 247 0 min 0 UV-I 0 W/m 14,5 km/h (3 Bft)
17.03.2007 20:20 9,2 C 90 % 1014,8 hPa 0,0 mm 8,0 km/h (2 Bft) W-SW 247 0 min 0 UV-I 0 W/m 19,3 km/h (3 Bft)
17.03.2007 20:30 9,3 C 90 % 1014,8 hPa 0,0 mm 6,4 km/h (2 Bft) W-SW 247 0 min 0 UV-I 0 W/m 19,3 km/h (3 Bft)
17.03.2007 20:40 9,3 C 90 % 1014,9 hPa 0,0 mm 6,4 km/h (2 Bft) W-SW 247 0 min 0 UV-I 0 W/m 20,9 km/h (4 Bft)
17.03.2007 20:50 9,2 C 91 % 1014,9 hPa 0,1 mm 6,4 km/h (2 Bft) SW 225 0 min 0 UV-I 0 W/m 17,7 km/h (3 Bft)
17.03.2007 21:00 9,2 C 91 % 1014,8 hPa 0,1 mm 4,8 km/h (1 Bft) W-SW 247 0 min 0 UV-I 0 W/m 14,5 km/h (3 Bft)
17.03.2007 21:10 9,1 C 92 % 1014,6 hPa 0,0 mm 4,8 km/h (1 Bft) SW 225 0 min 0 UV-I 0 W/m 11,3 km/h (2 Bft)
17.03.2007 21:20 9,1 C 91 % 1014,5 hPa 0,0 mm 4,8 km/h (1 Bft) SW 225 0 min 0 UV-I 0 W/m 11,3 km/h (2 Bft)
17.03.2007 21:30 9,2 C 90 % 1014,3 hPa 0,0 mm 6,4 km/h (2 Bft) SW 225 0 min 0 UV-I 0 W/m 16,1 km/h (3 Bft)
17.03.2007 21:40 9,3 C 89 % 1014,2 hPa 0,0 mm 6,4 km/h (2 Bft) SW 225 0 min 0 UV-I 0 W/m 19,3 km/h (3 Bft)
17.03.2007 21:50 9,4 C 89 % 1014,1 hPa 0,0 mm 6,4 km/h (2 Bft) SW 225 0 min 0 UV-I 0 W/m 19,3 km/h (3 Bft)
17.03.2007 22:00 9,4 C 88 % 1013,9 hPa 0,0 mm 6,4 km/h (2 Bft) W-SW 247 0 min 0 UV-I 0 W/m 16,1 km/h (3 Bft)
17.03.2007 22:10 9,5 C 88 % 1013,8 hPa 0,0 mm 4,8 km/h (1 Bft) SW 225 0 min 0 UV-I 0 W/m 11,3 km/h (2 Bft)
17.03.2007 22:20 9,5 C 88 % 1013,7 hPa 0,0 mm 4,8 km/h (1 Bft) W-SW 247 0 min 0 UV-I 0 W/m 14,5 km/h (3 Bft)
17.03.2007 22:30 9,5 C 88 % 1013,6 hPa 0,0 mm 4,8 km/h (1 Bft) SW 225 0 min 0 UV-I 0 W/m 14,5 km/h (3 Bft)
17.03.2007 22:40 9,6 C 88 % 1013,5 hPa 0,0 mm 4,8 km/h (1 Bft) W-SW 247 0 min 0 UV-I 0 W/m 14,5 km/h (3 Bft)
17.03.2007 22:50 9,6 C 87 % 1013,2 hPa 0,0 mm 4,8 km/h (1 Bft) W-SW 247 0 min 0 UV-I 0 W/m 14,5 km/h (3 Bft)
17.03.2007 23:00 9,6 C 87 % 1013,1 hPa 0,0 mm 4,8 km/h (1 Bft) SW 225 0 min 0 UV-I 0 W/m 14,5 km/h (3 Bft)
17.03.2007 23:10 9,6 C 87 % 1012,8 hPa 0,0 mm 4,8 km/h (1 Bft) W-SW 247 0 min 0 UV-I 0 W/m 14,5 km/h (3 Bft)
17.03.2007 23:20 9,6 C 86 % 1012,7 hPa 0,0 mm 6,4 km/h (2 Bft) SW 225 0 min 0 UV-I 0 W/m 14,5 km/h (3 Bft)
17.03.2007 23:30 9,6 C 86 % 1012,6 hPa 0,0 mm 4,8 km/h (1 Bft) SW 225 0 min 0 UV-I 0 W/m 14,5 km/h (3 Bft)
17.03.2007 23:40 9,7 C 86 % 1012,3 hPa 0,0 mm 4,8 km/h (1 Bft) W-SW 247 0 min 0 UV-I 0 W/m 11,3 km/h (2 Bft)
17.03.2007 23:50 9,7 C 85 % 1012,1 hPa 0,0 mm 4,8 km/h (1 Bft) W-SW 247 0 min 0 UV-I 0 W/m 20,9 km/h (4 Bft)
_ Min-Zeit 07:10 04:00 23:50 - 00:10 - - - - - 00:30
Minimum _ 7,4 C 77 % 1012,1 hPa - 3,2 km/h (1 Bft) - - - - - 9,7 km/h (2 Bft)
_ Max-Zeit 23:50 21:10 00:00 20:00 08:55 - - 00:00 11:50 12:30 11:00
Maximum _ 9,8 C 92 % 1019,4 hPa 0,1 mm 8,7 km/h
W-NW (2 Bft)
- - 0 min 1 UV-I 172 W/m 27,4 km/h
N (4 Bft)
Durchschnitt _ 8,6 C 86 % 1016,0 hPa #1,0 mm 6,1 km/h (2 Bft) W-SW - #0 min. 1 UV-I 60 W/m 17,8 km/h (3 Bft)